User: anonymous   Login
Location: Bodest
(46.3000°N, 22.5667°E)
Time: 12:48:07
(UTC+00:00)
Language:

Cosmos 2344 - Orbit

View from above orbital plane
View from above orbital plane
View from above satellite
View from above satellite

Ground track
Ground track

The orbit data is extracted from the following two-line orbital elements,

1 24827U 97028A   22021.78888248 -.00000211  00000-0 -19529-2 0  9993
2 24827  63.3181  20.1667 1046065  49.0152 113.0616 11.07946505996451
Epoch (UTC): 21 January 2022 18:55:59
Eccentricity: 0.1046065
inclination: 63.3181°
perigee height: 1232 km
apogee height: 3010 km
right ascension of ascending node: 20.1667°
argument of perigee: 49.0152°
revolutions per day: 11.07946505
mean anomaly at epoch: 113.0616°
orbit number at epoch: 99645

The dashed part of the orbit path shows where the satellite is in the earth's shadow,  

DLR